Location: Baia de Cri?
(46.1667°N, 22.7167°E)
Time: 23:31:33
(UTC+00:00)

COSMOS 2406 - Pass Details

Date: 15 January 2026
Orbit: 843 x 861 km, 71.0° (Epoch: 13 February)

Event Time Altitude Azimuth Distance (km) Brightness Sun altitude
Exits shadow 04:50:23 - 337° (NNW) 3,048 5.7 -13.1°
Reaches altitude 10° 04:51:52 10° 339° (NNW) 2,496 5.3 -12.8°
Maximum altitude 04:57:32 60° 60° (ENE) 982 3.8 -11.9°
Drops below altitude 10° 05:03:11 10° 140° (SE) 2,490 6.6 -11.0°
Sets 05:05:41 0° 144° (SE) 3,424 7.4 -10.6°
